Location: Red Rock Farm
(35.2100°N, 97.2200°W)
Time: 00:29:58
(UTC-05:00)

ISS - All Passes

Search period start: 26 September 2017 00:00
Search period end: 06 October 2017 00:00
Orbit: 401 x 407 km, 51.6° (Epoch: 26 September)

Date Brightness Start Highest point End Pass type
(mag) Time Alt. Az. Time Alt. Az. Time Alt. Az.
26 Sep - 02:55:25 10° NNW 02:58:17 27° NE 03:01:08 10° E night (unlit)
26 Sep - 04:31:55 10° WNW 04:34:41 25° SW 04:37:25 10° S night (unlit)
26 Sep - 19:32:41 10° SSW 19:35:47 42° SE 19:38:54 10° ENE daylight
26 Sep - 21:10:00 10° WNW 21:12:23 19° NNW 21:14:48 10° NNE visible
27 Sep - 02:03:33 10° NNW 02:05:45 16° NNE 02:07:56 10° ENE night (unlit)
27 Sep - 03:39:13 10° WNW 03:42:26 54° SW 03:45:39 10° SSE night (unlit)
27 Sep - 18:41:07 10° S 18:43:35 20° SE 18:46:02 10° E daylight
27 Sep - 20:16:55 10° WSW 20:19:52 31° NW 20:22:52 10° NNE visible
28 Sep - 01:12:14 10° N 01:13:06 11° NNE 01:13:59 10° NE night (unlit)
28 Sep - 02:46:50 10° NW 02:50:07 67° NE 02:53:22 10° SE night (unlit)
28 Sep - 19:24:13 10° WSW 19:27:26 64° NW 19:30:42 10° NE daylight
28 Sep - 21:03:45 10° NW 21:04:28 10° NNW 21:05:09 10° NNW visible
29 Sep - 01:54:39 10° NNW 01:57:40 32° NE 02:00:41 10° ESE night (unlit)
29 Sep - 03:31:32 10° W 03:33:59 19° SW 03:36:24 10° S night (unlit)
29 Sep - 18:31:54 10° SSW 18:35:05 56° SE 18:38:18 10° NE daylight
29 Sep - 20:09:41 10° WNW 20:11:48 16° NNW 20:13:55 10° NNE visible
30 Sep - 01:02:41 10° NNW 01:05:08 19° NNE 01:07:35 10° E night (unlit)
30 Sep - 02:38:36 10° WNW 02:41:44 41° SW 02:44:49 10° SSE night (unlit)
30 Sep - 17:40:04 10° S 17:42:49 25° SE 17:45:34 10° ENE daylight
30 Sep - 19:16:25 10° W 19:19:12 26° NW 19:22:02 10° NNE daylight
01 Oct - 00:11:02 10° N 00:12:29 12° NNE 00:13:57 10° NE night (unlit)
01 Oct - 01:46:05 10° NW 01:49:23 87° NE 01:52:39 10° SE night (unlit)
01 Oct - 16:49:13 10° SSE 16:50:35 12° SE 16:51:58 10° ESE daylight
01 Oct - 18:23:32 10° WSW 18:26:43 49° NW 18:29:54 10° NE daylight
02 Oct - 00:53:49 10° NW 00:56:56 40° NE 01:00:04 10° ESE night (unlit)
02 Oct - 02:31:09 10° W 02:33:09 15° SW 02:35:07 10° SSW night (unlit)
02 Oct - 17:31:03 10° SW 17:34:17 75° SE 17:37:32 10° NE daylight
02 Oct - 19:09:19 10° WNW 19:11:05 14° NNW 19:12:52 10° N daylight
03 Oct - 00:01:43 10° NNW 00:04:24 22° NNE 00:07:04 10° E night (unlit)
03 Oct - 01:37:55 10° WNW 01:40:53 31° SW 01:43:49 10° SSE night (unlit)
03 Oct - 16:38:59 10° SSW 16:41:56 32° SE 16:44:54 10° ENE daylight
03 Oct - 18:15:50 10° W 18:18:26 22° NNW 18:21:03 10° NNE daylight
03 Oct - 23:09:53 10° N 23:11:45 14° NNE 23:13:36 10° ENE night (unlit)
04 Oct - 00:45:16 10° NW 00:48:32 72° SW 00:51:47 10° SE night (unlit)
04 Oct - 15:47:38 10° SSE 15:49:39 16° SE 15:51:41 10° E daylight
04 Oct - 17:22:47 10° WSW 17:25:52 39° NW 17:28:57 10° NNE daylight
04 Oct - 23:52:52 10° NW 23:56:05 51° NE 23:59:17 10° ESE night (unlit)
05 Oct - 01:30:55 10° WSW 01:32:11 12° SW 01:33:27 10° SSW night (unlit)
05 Oct - 16:30:07 10° SW 16:33:22 83° NW 16:36:39 10° NE daylight
05 Oct - 18:08:56 10° NW 18:10:16 12° NNW 18:11:37 10° N daylight
05 Oct - 23:00:41 10° NNW 23:03:32 27° NE 23:06:22 10° E night (unlit)
